QPF
0.02 0.02 0.02 0.02 0.03 0.03 0.02 0.01 0.02 0.02 0.02 0.02 0.02 0.02 0.01 0.02 0.02 0.02 0.02 0.03 0.03 0.03 0.03 0.03 0.02 0.02 0.02 0.03 0.05 0.06 0.06 0.05 0.04 0.04 0.04 0.05 0.06 0.08 0.07 0.05 0.03 0.03 0.02
0.03 0.02 0.02 0.02 0.03 0.02 0.02 0.02 0.03 0.03 0.02 0.02 0.02 0.02 0.02 0.01 0.01 0.01 0.01 0.02 0.02 0.02 0.03 0.04 0.03 0.05 0.05 0.05 0.05 0.05 0.05 0.05 0.05 0.04 0.04 0.03 0.03 0.04 0.04 0.05 0.05 0.04 0.03
0.05 0.04 0.03 0.02 0.02 0.03 0.04 0.08 0.09 0.04 0.02 0.03 0.03 0.03 0.04 0.03 0.02 0.02 0.02 0.01 0.02 0.03 0.03 0.04 0.03 0.03 0.04 0.04 0.04 0.04 0.05 0.04 0.03 0.02 0.03 0.02 0.02 0.03 0.04 0.04 0.05 0.06 0.05
0.09 0.09 0.07 0.05 0.03 0.04 0.07 0.09 0.07 0.06 0.05 0.05 0.05 0.05 0.05 0.05 0.03 0.03 0.03 0.03 0.03 0.05 0.04 0.03 0.03 0.02 0.02 0.03 0.04 0.04 0.03 0.03 0.02 0.01 0.01 0.01 0.02 0.01 0.03 0.05 0.04 0.04 0.06
0.13 0.13 0.10 0.10 0.12 0.13 0.13 0.11 0.10 0.10 0.08 0.07 0.07 0.06 0.06 0.04 0.03 0.03 0.04 0.04 0.04 0.05 0.05 0.03 0.03 0.03 0.03 0.03 0.02 0.02 0.02 0.02 0.02 0.01 0.01 0.02 0.01 0.01 0.01 0.02 0.03 0.03 0.04
0.15 0.11 0.08 0.07 0.06 0.08 0.11 0.13 0.14 0.13 0.11 0.09 0.08 0.06 0.05 0.03 0.04 0.05 0.04 0.04 0.04 0.04 0.03 0.03 0.03 0.03 0.03 0.03 0.02 0.02 0.02 0.03 0.03 0.03 0.02 0.01 0.01 0.01 0.01 0.01 0.02 0.04 0.03
0.09 0.07 0.07 0.06 0.04 0.04 0.06 0.10 0.14 0.10 0.06 0.05 0.06 0.05 0.06 0.06 0.06 0.05 0.04 0.04 0.04 0.04 0.03 0.04 0.04 0.03 0.03 0.03 0.02 0.02 0.01 0.02 0.02 0.03 0.01 0.00 0.00 0.01 0.01 0.02 0.02 0.02 0.03
0.06 0.05 0.06 0.08 0.08 0.09 0.09 0.06 0.03 0.03 0.04 0.05 0.06 0.06 0.06 0.07 0.08 0.06 0.06 0.05 0.06 0.05 0.05 0.03 0.02 0.02 0.02 0.02 0.02 0.01 0.01 0.01 0.01 0.02 0.01 0.00 0.00 0.01 0.01 0.01 0.02 0.02 0.02
0.02 0.02 0.03 0.05 0.07 0.07 0.07 0.05 0.04 0.04 0.05 0.05 0.06 0.07 0.07 0.07 0.07 0.06 0.05 0.05 0.05 0.06 0.06 0.04 0.02 0.01 0.02 0.02 0.01 0.01 0.01 0.01 0.02 0.02 0.02 0.02 0.02 0.02 0.01 0.01 0.02 0.02 0.02
0.01 0.01 0.02 0.02 0.02 0.02 0.02 0.02 0.03 0.04 0.04 0.05 0.06 0.05 0.04 0.04 0.04 0.04 0.04 0.03 0.04 0.04 0.04 0.04 0.03 0.03 0.03 0.02 0.02 0.01 0.01 0.02 0.02 0.01 0.02 0.03 0.02 0.02 0.01 0.01 0.02 0.02 0.01
0.02 0.02 0.02 0.02 0.02 0.02 0.02 0.01 0.02 0.03 0.03 0.04 0.04 0.04 0.03 0.04 0.05 0.04 0.05 0.04 0.04 0.04 0.04 0.04 0.03 0.04 0.03 0.03 0.02 0.01 0.01 0.02 0.03 0.02 0.02 0.02 0.03 0.02 0.01 0.01 0.01 0.02 0.02
0.02 0.02 0.02 0.02 0.02 0.02 0.02 0.02 0.02 0.02 0.02 0.02 0.02 0.02 0.02 0.02 0.04 0.05 0.06 0.05 0.04 0.04 0.04 0.03 0.02 0.02 0.02 0.02 0.02 0.01 0.01 0.02 0.02 0.02 0.02 0.02 0.02 0.03 0.02 0.02 0.01 0.01 0.01
0.02 0.02 0.02 0.03 0.03 0.02 0.03 0.03 0.03 0.02 0.02 0.02 0.02 0.02 0.02 0.03 0.03 0.03 0.03 0.04 0.04 0.03 0.02 0.02 0.02 0.03 0.02 0.02 0.02 0.02 0.02 0.01 0.01 0.01 0.02 0.01 0.01 0.02 0.03 0.03 0.03 0.02 0.01
0.03 0.03 0.04 0.03 0.03 0.03 0.04 0.04 0.04 0.03 0.03 0.03 0.02 0.02 0.02 0.02 0.02 0.02 0.02 0.02 0.02 0.02 0.02 0.02 0.03 0.04 0.04 0.04 0.04 0.03 0.02 0.02 0.02 0.02 0.02 0.02 0.02 0.03 0.03 0.03 0.04 0.02 0.01
0.06 0.06 0.07 0.06 0.05 0.05 0.05 0.05 0.05 0.04 0.04 0.03 0.03 0.02 0.01 0.01 0.02 0.02 0.01 0.01 0.01 0.01 0.01 0.01 0.02 0.03 0.03 0.03 0.03 0.03 0.03 0.03 0.03 0.03 0.03 0.03 0.02 0.03 0.04 0.03 0.04 0.05 0.03
0.07 0.06 0.05 0.05 0.05 0.06 0.05 0.05 0.05 0.05 0.05 0.04 0.03 0.02 0.01 0.01 0.01 0.01 0.02 0.01 0.01 0.01 0.02 0.02 0.03 0.03 0.04 0.03 0.03 0.02 0.02 0.02 0.03 0.04 0.05 0.04 0.03 0.02 0.04 0.05 0.05 0.05 0.05
0.04 0.04 0.04 0.05 0.05 0.05 0.04 0.04 0.05 0.04 0.04 0.03 0.02 0.02 0.02 0.02 0.02 0.02 0.02 0.02 0.03 0.02 0.02 0.03 0.04 0.04 0.03 0.03 0.03 0.02 0.02 0.03 0.04 0.04 0.05 0.05 0.04 0.03 0.03 0.03 0.04 0.05 0.06
0.04 0.04 0.04 0.04 0.05 0.05 0.05 0.05 0.05 0.05 0.04 0.03 0.03 0.02 0.02 0.02 0.02 0.02 0.03 0.03 0.03 0.03 0.03 0.04 0.03 0.03 0.02 0.02 0.02 0.02 0.02 0.03 0.03 0.03 0.04 0.04 0.05 0.05 0.05 0.05 0.04 0.05 0.06
0.03 0.03 0.02 0.03 0.04 0.05 0.06 0.06 0.05 0.05 0.05 0.06 0.07 0.06 0.06 0.05 0.04 0.04 0.04 0.03 0.03 0.04 0.04 0.04 0.03 0.03 0.03 0.02 0.02 0.02 0.02 0.03 0.03 0.03 0.03 0.04 0.04 0.05 0.05 0.06 0.06 0.05 0.05
0.02 0.02 0.02 0.02 0.03 0.04 0.06 0.07 0.06 0.04 0.04 0.05 0.06 0.04 0.04 0.04 0.04 0.04 0.05 0.04 0.04 0.04 0.04 0.04 0.04 0.03 0.03 0.03 0.03 0.03 0.03 0.03 0.03 0.03 0.03 0.03 0.03 0.04 0.04 0.03 0.03 0.05 0.05
0.02 0.02 0.03 0.03 0.03 0.03 0.04 0.05 0.06 0.05 0.04 0.03 0.03 0.03 0.02 0.02 0.02 0.01 0.01 0.02 0.03 0.03 0.03 0.03 0.04 0.05 0.05 0.03 0.03 0.03 0.03 0.03 0.03 0.04 0.04 0.04 0.04 0.04 0.03 0.03 0.03 0.04 0.06
0.05 0.04 0.02 0.02 0.02 0.02 0.02 0.02 0.02 0.03 0.03 0.03 0.03 0.03 0.03 0.02 0.03 0.02 0.02 0.03 0.03 0.04 0.04 0.04 0.05 0.06 0.05 0.03 0.02 0.03 0.03 0.03 0.03 0.04 0.04 0.04 0.04 0.04 0.03 0.03 0.04 0.05 0.05
0.04 0.04 0.03 0.02 0.02 0.02 0.03 0.03 0.03 0.02 0.02 0.02 0.02 0.02 0.02 0.02 0.02 0.02 0.03 0.03 0.04 0.04 0.04 0.04 0.04 0.04 0.03 0.02 0.02 0.02 0.02 0.02 0.02 0.03 0.03 0.03 0.04 0.04 0.04 0.04 0.03 0.03 0.04
0.04 0.03 0.03 0.03 0.03 0.03 0.03 0.02 0.02 0.02 0.02 0.02 0.02 0.02 0.02 0.01 0.01 0.02 0.03 0.03 0.03 0.03 0.03 0.03 0.03 0.02 0.02 0.02 0.01 0.01 0.01 0.01 0.02 0.02 0.02 0.02 0.02 0.03 0.04 0.04 0.04 0.04 0.03
0.03 0.03 0.03 0.03 0.03 0.03 0.03 0.03 0.03 0.03 0.03 0.02 0.01 0.01 0.02 0.02 0.02 0.03 0.04 0.03 0.03 0.03 0.03 0.03 0.03 0.02 0.02 0.02 0.01 0.01 0.01 0.01 0.01 0.02 0.02 0.03 0.03 0.03 0.03 0.04 0.05 0.05 0.04
0.03 0.03 0.03 0.04 0.04 0.04 0.03 0.03 0.03 0.02 0.02 0.01 0.01 0.01 0.01 0.02 0.01 0.02 0.02 0.03 0.02 0.02 0.02 0.02 0.02 0.02 0.02 0.02 0.01 0.02 0.02 0.01 0.01 0.01 0.01 0.02 0.03 0.04 0.05 0.05 0.05 0.06 0.07
MSLP
1008.60 1008.49 1008.38 1008.22 1008.00 1007.72 1007.39 1007.04 1006.70 1006.41 1006.18 1006.01 1005.90 1005.82 1005.74 1005.63 1005.50 1005.33 1005.11 1004.87 1004.62 1004.36 1004.10 1003.85 1003.60 1003.36 1003.13 1002.93 1002.77 1002.65 1002.59 1002.58 1002.63 1002.71 1002.81 1002.92 1003.01 1003.08 1003.15 1003.23 1003.34 1003.51 1003.75
1008.62 1008.48 1008.35 1008.20 1007.99 1007.74 1007.44 1007.13 1006.83 1006.56 1006.35 1006.19 1006.08 1006.01 1005.94 1005.87 1005.79 1005.67 1005.53 1005.36 1005.17 1004.96 1004.73 1004.48 1004.22 1003.95 1003.69 1003.44 1003.23 1003.07 1002.97 1002.95 1002.98 1003.06 1003.17 1003.28 1003.38 1003.46 1003.53 1003.60 1003.70 1003.84 1004.05
1008.58 1008.44 1008.31 1008.18 1008.00 1007.79 1007.54 1007.28 1007.02 1006.79 1006.60 1006.44 1006.33 1006.25 1006.18 1006.11 1006.04 1005.95 1005.85 1005.72 1005.58 1005.42 1005.23 1005.01 1004.77 1004.50 1004.23 1003.97 1003.75 1003.57 1003.46 1003.43 1003.46 1003.54 1003.66 1003.78 1003.89 1003.98 1004.05 1004.11 1004.17 1004.28 1004.43
1008.51 1008.38 1008.27 1008.15 1008.02 1007.85 1007.66 1007.45 1007.25 1007.06 1006.90 1006.76 1006.65 1006.55 1006.46 1006.38 1006.29 1006.20 1006.11 1006.01 1005.91 1005.78 1005.63 1005.45 1005.24 1005.01 1004.76 1004.51 1004.30 1004.13 1004.03 1003.99 1004.03 1004.12 1004.24 1004.37 1004.48 1004.57 1004.63 1004.67 1004.71 1004.76 1004.85
1008.41 1008.30 1008.20 1008.11 1008.01 1007.88 1007.75 1007.60 1007.46 1007.32 1007.20 1007.09 1006.98 1006.87 1006.77 1006.66 1006.55 1006.45 1006.35 1006.26 1006.17 1006.08 1005.97 1005.83 1005.66 1005.47 1005.25 1005.04 1004.85 1004.69 1004.60 1004.57 1004.61 1004.70 1004.82 1004.95 1005.07 1005.15 1005.20 1005.23 1005.23 1005.23 1005.25
1008.34 1008.23 1008.14 1008.05 1007.95 1007.86 1007.76 1007.67 1007.58 1007.50 1007.43 1007.35 1007.26 1007.16 1007.05 1006.92 1006.79 1006.67 1006.57 1006.47 1006.40 1006.32 1006.24 1006.15 1006.02 1005.87 1005.70 1005.52 1005.35 1005.21 1005.12 1005.10 1005.13 1005.21 1005.32 1005.44 1005.55 1005.63 1005.68 1005.69 1005.67 1005.64 1005.61
1008.31 1008.18 1008.07 1007.95 1007.85 1007.75 1007.67 1007.61 1007.57 1007.55 1007.52 1007.49 1007.43 1007.34 1007.23 1007.10 1006.97 1006.84 1006.72 1006.63 1006.56 1006.51 1006.46 1006.40 1006.31 1006.20 1006.06 1005.91 1005.75 1005.63 1005.54 1005.50 1005.52 1005.59 1005.68 1005.79 1005.89 1005.97 1006.01 1006.02 1005.99 1005.94 1005.89
1008.34 1008.18 1008.01 1007.84 1007.69 1007.57 1007.48 1007.43 1007.41 1007.42 1007.43 1007.44 1007.41 1007.36 1007.26 1007.14 1007.01 1006.88 1006.77 1006.69 1006.63 1006.60 1006.58 1006.55 1006.50 1006.42 1006.31 1006.18 1006.05 1005.92 1005.83 1005.78 1005.77 1005.82 1005.89 1005.99 1006.08 1006.15 1006.19 1006.21 1006.19 1006.15 1006.11
1008.44 1008.22 1007.97 1007.73 1007.51 1007.33 1007.20 1007.14 1007.12 1007.14 1007.17 1007.20 1007.20 1007.17 1007.10 1006.99 1006.88 1006.76 1006.67 1006.61 1006.58 1006.57 1006.58 1006.59 1006.57 1006.53 1006.45 1006.34 1006.22 1006.10 1006.00 1005.94 1005.91 1005.93 1005.99 1006.06 1006.15 1006.22 1006.27 1006.30 1006.30 1006.29 1006.28
1008.59 1008.29 1007.96 1007.63 1007.33 1007.07 1006.89 1006.78 1006.73 1006.74 1006.77 1006.80 1006.81 1006.79 1006.73 1006.64 1006.55 1006.46 1006.39 1006.36 1006.36 1006.40 1006.44 1006.49 1006.52 1006.51 1006.47 1006.39 1006.29 1006.19 1006.09 1006.02 1005.99 1005.99 1006.03 1006.09 1006.17 1006.24 1006.31 1006.35 1006.39 1006.41 1006.43
1008.75 1008.37 1007.96 1007.55 1007.16 1006.84 1006.59 1006.42 1006.32 1006.28 1006.28 1006.28 1006.28 1006.25 1006.19 1006.12 1006.04 1005.98 1005.95 1005.95 1006.00 1006.08 1006.17 1006.27 1006.35 1006.39 1006.39 1006.35 1006.29 1006.21 1006.13 1006.07 1006.04 1006.04 1006.08 1006.14 1006.21 1006.29 1006.36 1006.43 1006.48 1006.54 1006.60
1008.87 1008.43 1007.96 1007.48 1007.04 1006.65 1006.33 1006.10 1005.94 1005.84 1005.77 1005.73 1005.68 1005.62 1005.55 1005.48 1005.41 1005.37 1005.38 1005.42 1005.52 1005.64 1005.79 1005.94 1006.07 1006.16 1006.22 1006.23 1006.21 1006.18 1006.13 1006.10 1006.09 1006.11 1006.15 1006.22 1006.30 1006.38 1006.47 1006.55 1006.63 1006.71 1006.80
1008.89 1008.42 1007.92 1007.42 1006.94 1006.50 1006.14 1005.84 1005.62 1005.44 1005.31 1005.19 1005.08 1004.97 1004.87 1004.79 1004.73 1004.71 1004.74 1004.83 1004.96 1005.14 1005.33 1005.53 1005.71 1005.86 1005.97 1006.03 1006.07 1006.09 1006.09 1006.11 1006.14 1006.19 1006.26 1006.35 1006.44 1006.53 1006.63 1006.72 1006.82 1006.92 1007.04
1008.78 1008.32 1007.83 1007.32 1006.84 1006.40 1006.00 1005.66 1005.37 1005.12 1004.91 1004.71 1004.53 1004.37 1004.23 1004.12 1004.06 1004.05 1004.11 1004.23 1004.40 1004.61 1004.84 1005.08 1005.29 1005.48 1005.63 1005.75 1005.83 1005.91 1005.97 1006.04 1006.12 1006.22 1006.34 1006.46 1006.58 1006.70 1006.81 1006.92 1007.03 1007.15 1007.28
1008.54 1008.11 1007.65 1007.19 1006.73 1006.30 1005.90 1005.53 1005.19 1004.87 1004.58 1004.31 1004.06 1003.85 1003.67 1003.54 1003.47 1003.47 1003.54 1003.68 1003.87 1004.10 1004.35 1004.60 1004.83 1005.03 1005.21 1005.35 1005.48 1005.59 1005.71 1005.84 1005.99 1006.14 1006.31 1006.49 1006.66 1006.82 1006.96 1007.10 1007.24 1007.38 1007.53
1008.17 1007.79 1007.39 1006.99 1006.58 1006.18 1005.79 1005.40 1005.03 1004.67 1004.31 1003.98 1003.68 1003.42 1003.20 1003.06 1002.99 1002.99 1003.08 1003.22 1003.42 1003.64 1003.88 1004.11 1004.32 1004.51 1004.68 1004.83 1004.96 1005.11 1005.27 1005.45 1005.66 1005.88 1006.12 1006.36 1006.59 1006.81 1007.02 1007.21 1007.39 1007.56 1007.74
1007.73 1007.39 1007.06 1006.72 1006.37 1006.01 1005.64 1005.25 1004.86 1004.46 1004.06 1003.69 1003.35 1003.06 1002.83 1002.68 1002.61 1002.62 1002.70 1002.84 1003.02 1003.22 1003.42 1003.61 1003.77 1003.91 1004.04 1004.16 1004.29 1004.44 1004.63 1004.85 1005.11 1005.40 1005.71 1006.03 1006.35 1006.65 1006.93 1007.19 1007.44 1007.67 1007.90
1007.24 1006.96 1006.68 1006.40 1006.10 1005.78 1005.42 1005.04 1004.63 1004.21 1003.79 1003.39 1003.03 1002.73 1002.51 1002.36 1002.29 1002.31 1002.38 1002.51 1002.65 1002.81 1002.95 1003.06 1003.15 1003.22 1003.29 1003.36 1003.46 1003.60 1003.79 1004.05 1004.35 1004.71 1005.10 1005.50 1005.91 1006.31 1006.68 1007.04 1007.37 1007.68 1007.98
1006.78 1006.53 1006.29 1006.05 1005.78 1005.48 1005.13 1004.75 1004.34 1003.90 1003.47 1003.06 1002.70 1002.40 1002.18 1002.04 1001.98 1001.99 1002.05 1002.15 1002.25 1002.34 1002.40 1002.44 1002.44 1002.43 1002.42 1002.43 1002.49 1002.61 1002.81 1003.08 1003.43 1003.84 1004.30 1004.79 1005.29 1005.79 1006.27 1006.73 1007.17 1007.58 1007.96
1006.37 1006.14 1005.91 1005.68 1005.43 1005.13 1004.78 1004.39 1003.97 1003.53 1003.09 1002.68 1002.31 1002.02 1001.80 1001.66 1001.60 1001.60 1001.63 1001.69 1001.73 1001.75 1001.74 1001.69 1001.61 1001.52 1001.44 1001.40 1001.42 1001.53 1001.72 1002.01 1002.39 1002.86 1003.38 1003.95 1004.54 1005.13 1005.71 1006.28 1006.82 1007.33 1007.82
1006.03 1005.80 1005.57 1005.33 1005.07 1004.76 1004.40 1004.00 1003.56 1003.11 1002.66 1002.24 1001.87 1001.57 1001.34 1001.19 1001.11 1001.07 1001.07 1001.06 1001.04 1000.99 1000.90 1000.78 1000.63 1000.48 1000.35 1000.28 1000.28 1000.38 1000.59 1000.90 1001.32 1001.83 1002.40 1003.03 1003.69 1004.37 1005.04 1005.69 1006.33 1006.94 1007.53
1005.78 1005.52 1005.28 1005.02 1004.73 1004.40 1004.02 1003.60 1003.15 1002.68 1002.21 1001.78 1001.39 1001.07 1000.81 1000.62 1000.49 1000.40 1000.32 1000.25 1000.15 1000.03 999.87 999.69 999.49 999.31 999.17 999.09 999.11 999.22 999.46 999.80 1000.26 1000.81 1001.43 1002.11 1002.82 1003.55 1004.28 1005.01 1005.72 1006.42 1007.09
1005.60 1005.33 1005.06 1004.77 1004.46 1004.11 1003.71 1003.27 1002.79 1002.30 1001.81 1001.35 1000.93 1000.56 1000.24 999.99 999.77 999.59 999.43 999.26 999.08 998.88 998.67 998.44 998.23 998.05 997.92 997.87 997.93 998.09 998.37 998.77 999.27 999.85 1000.51 1001.21 1001.95 1002.72 1003.49 1004.26 1005.02 1005.78 1006.51
1005.50 1005.21 1004.91 1004.61 1004.28 1003.91 1003.50 1003.05 1002.56 1002.05 1001.54 1001.03 1000.56 1000.12 999.73 999.37 999.05 998.76 998.48 998.20 997.93 997.65 997.38 997.13 996.91 996.75 996.67 996.68 996.80 997.04 997.39 997.84 998.38 999.00 999.69 1000.41 1001.16 1001.94 1002.72 1003.51 1004.30 1005.08 1005.85
1005.46 1005.16 1004.87 1004.56 1004.23 1003.86 1003.45 1003.00 1002.51 1001.99 1001.45 1000.91 1000.37 999.86 999.36 998.89 998.44 998.01 997.60 997.20 996.83 996.47 996.15 995.88 995.67 995.55 995.52 995.61 995.81 996.13 996.55 997.07 997.66 998.32 999.02 999.75 1000.50 1001.26 1002.04 1002.82 1003.61 1004.40 1005.19
1005.50 1005.21 1004.93 1004.64 1004.33 1003.98 1003.59 1003.16 1002.68 1002.16 1001.61 1001.04 1000.44 999.85 999.25 998.66 998.07 997.51 996.96 996.44 995.95 995.52 995.15 994.86 994.66 994.57 994.61 994.77 995.05 995.44 995.94 996.51 997.15 997.84 998.55 999.28 1000.02 1000.76 1001.51 1002.27 1003.04 1003.81 1004.59
Thickness
5785 5783 5780 5778 5776 5774 5771 5769 5767 5766 5764 5762 5760 5758 5756 5754 5753 5751 5749 5747 5745 5744 5743 5741 5739 5738 5736 5734 5733 5730 5727 5723 5716 5715 5717 5718 5717 5715 5714 5712 5710 5709 5708
5783 5780 5776 5774 5771 5769 5767 5765 5764 5761 5760 5758 5756 5753 5751 5750 5748 5746 5744 5743 5740 5738 5737 5735 5733 5732 5730 5728 5726 5724 5721 5719 5714 5709 5709 5709 5709 5709 5707 5705 5705 5704 5703
5779 5775 5772 5769 5766 5764 5762 5760 5757 5756 5755 5754 5751 5749 5747 5745 5744 5742 5740 5738 5735 5733 5731 5729 5728 5726 5724 5722 5720 5718 5715 5714 5710 5706 5702 5702 5702 5701 5699 5698 5699 5697 5697
5774 5770 5767 5765 5763 5761 5759 5756 5753 5751 5749 5748 5746 5745 5743 5741 5739 5737 5735 5732 5730 5728 5727 5725 5723 5721 5719 5717 5715 5711 5709 5706 5703 5699 5696 5694 5694 5693 5691 5689 5688 5689 5690
5768 5765 5763 5762 5760 5758 5755 5752 5749 5746 5745 5743 5741 5739 5738 5736 5734 5732 5730 5728 5724 5722 5721 5719 5718 5717 5715 5713 5710 5706 5703 5699 5696 5692 5689 5686 5685 5683 5682 5682 5680 5681 5682
5764 5762 5760 5758 5755 5752 5750 5747 5744 5742 5741 5739 5736 5734 5732 5731 5730 5728 5725 5722 5719 5716 5714 5713 5712 5710 5709 5707 5705 5702 5699 5694 5689 5685 5682 5679 5678 5677 5677 5676 5673 5671 5670
5760 5758 5756 5753 5749 5747 5745 5742 5739 5737 5735 5733 5730 5729 5727 5726 5725 5723 5721 5717 5714 5711 5709 5706 5705 5704 5701 5699 5697 5696 5693 5691 5688 5683 5678 5676 5674 5674 5672 5669 5667 5665 5664
5755 5753 5751 5748 5744 5742 5739 5736 5734 5732 5729 5727 5725 5723 5722 5721 5719 5717 5715 5712 5709 5706 5703 5700 5697 5696 5694 5691 5689 5686 5684 5683 5681 5679 5676 5674 5673 5671 5668 5665 5662 5660 5659
5750 5749 5747 5743 5739 5736 5733 5731 5729 5727 5724 5722 5721 5719 5716 5715 5713 5711 5709 5705 5701 5698 5696 5694 5692 5690 5688 5685 5681 5678 5676 5676 5676 5674 5672 5670 5668 5666 5663 5658 5654 5650 5648
5744 5743 5742 5739 5735 5731 5728 5726 5724 5722 5719 5717 5715 5713 5711 5708 5707 5704 5702 5698 5693 5691 5688 5687 5685 5683 5681 5678 5674 5671 5668 5667 5667 5666 5664 5662 5660 5658 5656 5653 5649 5645 5642
5740 5738 5736 5734 5731 5728 5724 5721 5718 5715 5713 5710 5707 5705 5703 5701 5699 5697 5694 5690 5687 5683 5680 5678 5677 5675 5673 5671 5668 5665 5663 5661 5659 5657 5655 5654 5653 5651 5650 5648 5645 5642 5638
5733 5731 5729 5728 5726 5724 5719 5714 5711 5708 5705 5701 5697 5695 5694 5693 5691 5689 5686 5683 5681 5676 5673 5671 5669 5668 5666 5663 5661 5659 5658 5654 5651 5648 5646 5645 5644 5644 5643 5642 5641 5639 5637
5725 5723 5721 5720 5718 5716 5712 5707 5704 5700 5697 5693 5689 5686 5684 5683 5681 5680 5678 5675 5673 5669 5667 5665 5663 5661 5658 5655 5654 5652 5650 5646 5643 5641 5639 5638 5638 5638 5637 5636 5635 5633 5631
5716 5714 5713 5711 5709 5707 5705 5701 5697 5693 5690 5686 5682 5679 5676 5674 5672 5670 5668 5666 5664 5661 5659 5657 5655 5652 5650 5647 5645 5643 5641 5638 5636 5634 5633 5632 5631 5630 5629 5628 5626 5624 5621
5709 5707 5704 5702 5700 5698 5696 5693 5690 5688 5686 5682 5678 5674 5670 5666 5665 5663 5661 5658 5656 5653 5650 5647 5644 5641 5638 5636 5635 5633 5632 5630 5628 5626 5625 5624 5623 5621 5620 5619 5618 5616 5612
5700 5698 5695 5693 5691 5689 5686 5683 5682 5680 5678 5676 5673 5668 5665 5662 5660 5657 5654 5652 5649 5646 5641 5638 5634 5631 5629 5627 5625 5624 5623 5622 5620 5619 5617 5615 5614 5612 5610 5609 5608 5606 5603
5691 5689 5687 5684 5682 5680 5678 5675 5671 5669 5668 5666 5664 5662 5659 5656 5653 5650 5646 5643 5640 5637 5632 5629 5626 5623 5621 5620 5618 5616 5615 5615 5613 5611 5609 5607 5605 5603 5601 5600 5598 5596 5595
5684 5682 5680 5677 5675 5673 5670 5668 5665 5662 5658 5655 5654 5652 5650 5647 5644 5641 5637 5634 5630 5627 5624 5621 5618 5616 5614 5612 5611 5609 5608 5607 5605 5603 5601 5599 5596 5595 5593 5591 5590 5588 5588
5676 5674 5672 5670 5668 5666 5663 5660 5657 5654 5650 5647 5644 5642 5640 5637 5634 5631 5628 5625 5623 5619 5616 5614 5611 5609 5606 5605 5603 5602 5600 5598 5596 5594 5592 5590 5588 5586 5584 5583 5581 5581 5579
5667 5667 5665 5662 5659 5657 5654 5652 5648 5645 5642 5639 5636 5634 5631 5627 5624 5621 5619 5617 5614 5612 5609 5607 5604 5602 5600 5598 5596 5594 5591 5589 5587 5586 5583 5581 5579 5577 5575 5574 5573 5571 5570
5659 5657 5656 5653 5651 5648 5646 5643 5641 5638 5634 5632 5629 5627 5625 5620 5616 5613 5611 5608 5607 5604 5602 5600 5597 5595 5593 5591 5588 5586 5583 5580 5578 5576 5575 5573 5571 5569 5568 5566 5565 5563 5561
5651 5649 5646 5644 5642 5640 5638 5636 5633 5629 5627 5624 5622 5619 5616 5612 5609 5606 5603 5601 5600 5597 5595 5592 5590 5587 5585 5582 5579 5577 5574 5571 5569 5567 5566 5564 5563 5561 5559 5557 5555 5553 5552
5644 5642 5639 5637 5634 5632 5629 5627 5624 5621 5619 5617 5614 5611 5608 5604 5601 5598 5596 5594 5592 5589 5586 5584 5581 5578 5576 5573 5570 5568 5565 5562 5560 5558 5556 5554 5553 5550 5548 5546 5545 5543 5542
5636 5635 5632 5629 5626 5624 5621 5618 5616 5614 5611 5608 5606 5603 5600 5597 5594 5592 5589 5586 5583 5580 5578 5575 5572 5569 5566 5563 5560 5558 5556 5554 5552 5550 5547 5545 5543 5541 5539 5536 5535 5534 5533
5630 5628 5626 5622 5619 5616 5613 5610 5607 5605 5603 5601 5598 5595 5592 5590 5587 5584 5581 5579 5575 5572 5569 5566 5563 5560 5557 5554 5551 5548 5546 5544 5542 5540 5538 5535 5533 5531 5529 5527 5525 5524 5524
5623 5620 5617 5615 5612 5609 5605 5602 5600 5598 5595 5593 5590 5588 5585 5582 5579 5576 5573 5570 5567 5563 5560 5557 5554 5551 5548 5545 5542 5539 5537 5534 5532 5530 5528 5525 5523 5521 5519 5517 5516 5515 5515